Temperature
20 18 17 18 19 21 22 22 22 22 23 23 22 21 21 21 21 21 21 21 21 21 22 21 21 21 21 20 20 20 20 19 19 19 18 18 18 18 18 17 17 17 17 17
18 18 19 20 20 21 22 22 21 21 23 23 21 21 21 20 20 21 21 21 21 21 21 21 21 20 20 20 20 20 20 19 19 19 19 18 18 18 18 17 17 17 17 17
19 20 21 21 21 21 21 21 21 22 22 22 22 21 20 20 20 21 21 21 21 21 21 21 21 21 20 20 20 20 20 19 19 18 18 18 17 17 17 17 17 17 17 17
20 21 22 21 21 21 20 22 22 22 21 20 21 20 20 19 19 20 20 21 21 21 21 21 21 21 20 20 20 20 19 19 19 19 18 18 17 17 18 18 18 17 17 17
20 21 21 21 22 22 21 22 22 22 21 20 20 20 19 19 20 20 19 20 21 21 21 21 21 21 21 20 20 20 19 19 19 19 18 18 18 18 17 17 18 17 17 17
21 22 22 22 23 22 22 21 20 17 18 19 20 19 19 18 19 19 19 20 21 21 21 21 21 21 20 20 20 19 19 19 18 18 18 18 18 17 17 17 17 17 17 17
21 22 22 23 23 23 22 19 18 19 18 18 19 19 18 19 19 19 19 19 20 21 21 21 21 20 20 20 20 19 19 18 18 18 18 18 18 18 17 17 17 17 17 17
20 20 22 22 22 21 20 19 19 19 19 18 18 18 19 19 19 19 19 19 20 20 20 20 20 20 20 20 20 19 19 19 18 18 18 18 17 17 18 17 17 17 17 17
19 20 22 22 22 21 20 19 19 17 18 18 18 18 18 19 19 18 18 18 18 19 19 20 20 20 20 19 19 19 19 18 18 18 17 17 17 17 17 17 17 17 17 17
19 20 22 23 22 21 20 17 16 17 18 19 20 19 18 19 18 18 17 17 18 18 19 19 19 20 20 19 19 19 18 18 18 17 17 17 17 17 17 17 17 17 17 17
19 20 21 22 22 21 19 18 16 15 17 18 19 19 19 18 18 18 17 18 18 18 19 19 19 19 19 19 19 18 18 18 17 17 17 17 17 17 17 17 17 17 17 17
18 17 18 20 21 21 20 18 17 18 18 16 18 18 19 18 17 17 17 18 18 18 18 19 19 19 19 19 18 18 18 18 17 17 17 17 17 17 17 17 17 16 16 16
18 17 18 20 20 21 20 19 17 16 15 15 18 19 18 17 17 17 17 17 18 18 18 19 19 19 19 19 18 18 18 18 17 17 17 17 17 17 17 17 16 16 16 16
18 16 18 19 19 20 20 19 18 17 17 17 18 19 19 17 17 17 17 17 17 18 18 18 19 19 19 18 18 18 18 17 17 17 17 16 16 17 17 16 16 16 16 16
17 17 18 19 20 20 20 20 19 19 18 18 19 18 18 17 16 17 17 17 17 17 17 18 18 18 18 18 18 18 18 17 17 17 16 16 16 16 16 16 16 16 16 16
15 17 18 19 19 20 20 20 20 20 19 19 19 18 17 16 16 16 16 16 16 17 17 18 18 18 18 18 18 17 18 17 17 17 16 16 16 16 16 16 16 16 16 16
14 16 16 17 18 19 19 18 19 19 18 18 18 18 16 15 15 15 15 16 16 17 17 17 17 18 18 18 18 18 17 17 17 17 17 16 16 16 16 16 16 16 16 16
14 14 14 15 18 18 18 17 18 18 17 17 17 16 15 15 14 15 16 16 16 16 17 17 17 17 17 17 17 17 17 17 17 17 17 16 16 16 16 16 16 16 16 16
13 14 14 14 16 17 18 17 17 17 17 16 16 15 15 14 15 14 15 15 16 16 17 17 17 17 17 17 17 17 17 17 17 17 17 17 16 16 16 16 16 16 16 16
13 13 13 14 16 16 17 17 17 17 17 16 15 14 14 15 15 14 14 15 15 16 16 16 17 17 17 17 17 17 17 16 16 16 16 16 16 16 16 16 16 16 15 15
14 13 13 14 15 16 16 15 17 17 17 16 15 14 14 14 14 14 14 14 15 15 15 16 16 16 16 16 16 16 16 16 16 16 16 16 16 16 16 16 16 15 15 15
13 13 13 13 15 15 14 15 16 15 15 15 14 14 14 13 14 14 14 14 14 14 15 15 15 15 15 15 16 16 16 16 16 16 16 16 16 16 16 15 15 15 15 15
12 12 12 13 13 13 13 13 14 14 14 14 14 14 14 13 13 13 13 13 13 14 14 15 15 15 15 15 15 15 15 15 15 15 15 15 15 15 15 15 14 14 14 14
12 11 12 12 12 12 12 13 13 14 14 14 14 14 14 13 13 13 13 13 13 13 13 14 14 14 14 14 14 14 15 15 15 15 15 14 14 14 14 14 14 14 13 13
12 12 12 12 12 12 12 12 13 14 14 14 13 13 13 13 12 12 12 12 12 12 13 13 13 13 13 14 14 14 14 14 14 14 14 14 14 13 13 13 13 13 12 12
11 11 12 12 12 11 12 12 13 13 13 13 13 12 12 12 12 12 12 12 12 12 12 12 12 12 13 13 13 13 13 13 14 13 13 13 13 13 12 12 12 11 11 11
Wind_Speed
6 5 7 9 9 7 5 2 4 5 4 2 3 5 4 4 6 7 8 9 11 13 10 10 12 14 14 13 14 14 14 14 12 10 10 9 9 8 7 8 12 13 13 13
5 5 9 7 6 5 4 3 5 5 2 1 2 4 2 3 6 8 9 10 10 9 8 9 11 12 15 16 15 15 15 15 14 12 10 7 7 6 7 6 9 13 13 13
8 6 7 8 6 6 5 6 5 4 4 3 1 5 3 2 2 2 4 6 7 9 10 10 10 12 13 14 16 15 15 15 14 12 8 6 4 3 5 6 7 10 13 13
6 6 5 6 7 8 6 7 7 4 0 3 2 2 5 3 4 4 4 5 5 6 8 8 9 10 12 13 12 13 14 14 14 14 12 13 10 8 8 8 7 8 12 13
8 6 7 8 8 10 8 4 4 3 4 0 1 2 7 3 4 6 5 4 4 5 7 8 9 10 10 10 11 11 12 13 14 15 16 15 11 8 6 7 9 9 8 10
6 5 7 9 7 9 5 6 6 6 5 1 3 4 6 4 5 5 4 3 4 5 6 7 7 7 7 8 9 10 12 13 13 15 15 16 15 12 11 10 10 9 7 7
3 4 5 5 4 3 6 6 4 3 3 5 2 3 8 6 5 5 4 4 4 4 5 6 6 7 6 7 8 9 12 12 13 14 15 15 15 14 14 12 12 10 7 7
6 6 6 7 8 7 7 10 8 6 5 4 2 5 7 4 3 2 2 2 2 3 3 4 5 6 6 7 7 8 10 11 12 13 13 12 12 10 10 11 10 11 9 9
8 6 4 5 6 11 8 6 8 7 4 1 4 6 7 2 2 1 0 1 2 3 3 4 5 5 6 6 6 7 8 7 9 11 11 11 11 11 11 11 10 9 8 8
9 4 4 2 5 3 7 10 7 7 7 3 4 4 5 6 4 3 1 2 2 3 3 3 4 4 4 3 3 5 6 7 7 9 9 10 10 11 11 10 11 10 10 9
7 5 3 2 5 7 6 6 6 6 6 7 4 7 6 7 5 5 4 3 3 2 2 3 3 4 4 4 3 4 5 6 7 8 8 8 9 9 10 10 11 11 10 10
6 5 2 4 4 4 6 8 8 7 5 5 5 7 4 5 5 4 3 2 3 3 2 2 3 3 4 4 4 4 4 5 6 6 6 7 8 9 10 10 11 11 11 10
7 6 3 3 3 2 4 4 5 7 6 6 6 6 2 1 1 2 3 2 2 3 3 3 3 3 3 4 4 3 3 4 5 5 6 6 7 8 9 9 10 10 10 10
7 5 7 9 7 5 4 4 6 7 6 6 7 6 2 2 3 2 2 2 2 3 3 3 3 2 2 3 3 3 2 3 4 5 6 6 7 7 8 8 8 9 10 10
5 5 3 2 3 4 4 5 7 6 8 9 8 7 6 6 5 3 2 3 4 3 2 2 2 2 2 2 2 3 3 3 4 4 5 5 5 6 6 6 7 8 8 9
4 5 3 2 1 4 3 2 5 4 5 4 4 5 3 2 4 3 3 4 4 3 1 1 1 1 1 2 2 2 3 3 4 4 4 4 5 6 6 6 6 6 6 6
2 5 5 2 1 4 1 2 3 3 3 6 7 6 3 4 5 3 2 3 3 2 2 1 0 1 1 2 2 2 3 3 4 4 4 4 5 6 6 7 7 6 5 5
4 5 4 4 4 4 5 1 2 4 2 1 3 4 4 5 6 5 4 3 3 3 3 2 1 1 1 1 1 2 3 4 4 4 4 4 5 5 5 6 6 6 5 5
4 6 5 4 4 2 3 1 2 3 1 1 5 7 7 7 6 5 5 4 4 3 2 2 2 2 2 2 2 3 3 4 4 3 3 4 5 5 6 6 5 5 5 5
5 5 5 5 5 6 6 2 1 3 1 2 5 7 7 5 4 1 3 5 6 5 4 4 4 5 4 3 3 4 4 3 2 2 2 3 4 5 6 6 5 5 5 5
4 4 4 4 3 5 3 2 2 5 6 3 5 6 6 3 3 4 4 6 6 6 6 6 6 6 5 4 4 5 4 3 2 3 4 4 4 5 5 5 5 6 6 6
3 3 3 4 4 6 1 1 4 4 1 4 6 6 7 8 8 8 7 7 7 7 8 7 7 7 6 6 6 7 6 4 5 6 6 6 6 5 6 7 6 6 7 7
2 3 4 4 4 1 1 1 1 1 3 3 6 8 10 9 8 8 8 8 8 8 7 7 8 8 8 7 7 8 5 6 8 9 9 8 9 8 8 8 7 7 6 6
1 1 2 1 0 1 2 2 3 3 4 5 8 9 10 10 10 10 9 8 8 8 7 7 9 10 9 8 8 7 6 7 10 11 10 9 10 10 10 9 7 7 6 6
2 1 1 1 1 3 3 3 4 6 8 10 10 9 10 12 11 11 10 9 8 8 8 8 9 9 9 8 9 8 7 9 11 11 10 10 10 10 11 11 10 9 8 6
2 3 4 4 4 3 2 2 5 8 9 10 12 11 10 12 13 12 11 9 9 9 9 9 10 9 9 9 10 8 8 9 11 10 9 8 8 9 9 10 12 17 14 17
Wind_Direction
144 125 188 195 185 180 169 184 267 268 279 304 277 274 265 198 176 185 192 197 201 209 201 185 186 182 180 182 184 185 184 180 177 180 180 183 190 187 188 192 188 188 189 186
104 218 209 181 175 176 189 240 272 295 337 273 288 302 282 203 202 197 198 207 209 199 180 180 181 183 186 187 189 187 189 185 184 189 185 186 180 184 189 188 187 190 190 186
172 216 178 165 170 183 208 205 232 256 341 3 17 336 324 296 260 226 225 224 212 195 188 184 180 184 185 190 191 192 192 190 188 182 169 162 147 145 174 186 189 191 191 189
204 226 168 172 191 177 237 224 213 223 170 296 55 287 288 289 286 255 246 235 216 195 178 180 185 186 192 195 192 192 191 192 187 179 178 178 183 189 193 189 187 185 190 191
215 197 182 200 205 176 209 201 185 191 169 219 15 170 281 311 275 269 259 248 223 194 181 184 190 192 194 191 191 191 190 193 189 185 187 187 190 191 179 175 179 183 187 191
215 207 189 201 203 183 163 80 60 54 86 189 231 169 269 250 240 264 264 254 221 194 181 181 181 180 186 186 189 187 189 196 191 189 191 192 190 183 176 182 186 188 186 190
244 245 223 178 142 131 128 103 44 15 26 243 259 189 247 252 241 241 251 247 216 185 173 174 172 172 184 188 187 187 190 196 192 193 195 194 192 188 187 188 190 189 188 193
187 252 223 187 176 168 168 146 158 181 205 263 322 231 253 259 268 269 238 217 155 142 163 175 179 173 181 191 189 187 191 197 192 194 196 192 190 191 193 192 189 191 195 195
177 236 263 208 172 147 142 170 159 131 138 115 283 286 302 265 306 317 345 131 152 148 147 165 166 164 170 185 190 187 190 191 191 193 192 193 192 193 194 191 188 190 190 189
157 208 273 226 105 77 142 142 112 128 147 207 277 276 255 257 256 249 219 191 175 152 150 157 161 158 159 168 180 177 178 187 195 194 196 199 198 193 192 189 188 189 188 184
143 164 304 63 154 164 117 111 113 118 148 155 216 264 229 221 215 213 216 203 180 171 167 165 163 144 130 124 143 161 169 177 183 189 191 192 192 191 188 190 190 188 185 181
146 131 215 265 267 180 150 157 146 149 185 166 170 256 279 213 207 198 199 181 161 151 153 152 147 132 127 131 139 157 168 175 181 182 184 188 185 187 191 193 190 184 183 183
140 126 113 353 355 52 113 138 139 124 120 147 166 252 333 57 180 194 177 156 134 122 122 126 127 125 137 138 142 156 167 175 173 174 178 179 179 183 188 188 182 180 182 181
128 120 161 187 204 182 154 148 147 125 141 179 209 230 256 221 215 205 166 135 117 111 116 116 115 114 121 131 141 149 152 144 150 162 174 178 181 180 180 180 177 178 180 179
111 130 159 202 193 157 156 166 166 161 171 175 210 211 235 215 204 190 141 110 92 87 107 120 125 123 122 124 132 133 131 128 142 154 165 175 173 166 162 163 169 172 175 178
78 125 116 47 59 122 103 133 164 162 159 171 160 225 243 134 116 111 105 102 98 89 95 120 110 122 153 164 150 136 132 135 139 152 165 161 158 157 159 162 163 167 170 170
82 118 115 170 316 75 139 233 182 162 168 164 187 210 149 127 121 120 103 99 106 82 52 75 177 189 189 197 171 159 149 139 143 146 146 152 159 163 163 162 160 166 168 164
133 109 117 129 107 185 231 310 148 129 102 144 142 131 134 122 104 77 73 91 76 53 50 42 32 44 60 99 119 133 138 139 144 144 150 154 156 159 156 155 159 159 153 156
138 131 118 124 146 225 269 222 137 142 218 195 145 133 122 121 90 54 46 62 62 45 50 48 49 74 76 85 107 121 119 127 133 148 160 164 161 158 154 160 156 148 141 139
66 94 116 127 143 207 228 208 181 115 273 200 151 146 144 129 126 124 45 57 55 43 42 48 58 69 73 78 91 112 112 112 122 139 140 147 154 158 159 157 146 137 136 138
60 62 107 141 165 244 251 280 124 168 220 160 146 147 140 124 137 122 86 69 61 53 49 51 60 62 56 61 87 94 88 82 77 86 90 96 119 131 135 129 123 125 126 122
149 139 158 145 166 230 300 123 175 203 118 119 126 128 120 113 105 100 89 79 70 62 56 57 65 59 49 56 79 82 68 60 75 81 80 81 88 102 109 111 111 113 118 116
166 185 178 182 197 264 348 274 310 141 130 120 123 126 124 117 110 101 90 81 71 64 59 59 70 65 51 48 67 77 62 67 77 77 75 75 79 79 82 92 96 95 98 103
279 131 132 142 262 37 32 37 47 87 116 115 121 124 121 119 115 106 97 85 74 67 60 62 69 66 53 47 56 64 67 75 82 80 77 77 79 76 71 71 73 81 83 93
215 151 129 160 160 91 43 46 79 88 98 103 100 103 111 115 112 107 99 90 83 75 66 66 70 67 57 53 54 54 61 76 80 78 78 78 80 84 78 71 62 68 59 76
208 181 176 205 195 161 154 96 102 103 104 109 107 97 98 107 109 103 95 88 84 77 70 70 68 67 62 61 57 51 59 79 87 83 78 80 83 85 89 90 78 62 67 65
Height
1461 1469 1475 1473 1472 1474 1475 1478 1481 1477 1469 1470 1472 1470 1466 1464 1466 1467 1469 1470 1472 1473 1477 1482 1486 1490 1495 1499 1502 1506 1509 1514 1519 1522 1526 1530 1534 1538 1542 1546 1549 1552 1555 1558
1466 1469 1464 1465 1468 1470 1474 1479 1480 1474 1468 1469 1472 1471 1466 1465 1465 1465 1466 1467 1469 1471 1475 1479 1483 1487 1490 1494 1498 1502 1506 1510 1513 1518 1522 1527 1531 1535 1540 1543 1547 1550 1553 1556
1463 1460 1457 1462 1467 1471 1473 1477 1476 1476 1472 1469 1472 1476 1470 1466 1465 1465 1466 1466 1467 1468 1471 1476 1479 1483 1486 1490 1494 1498 1502 1505 1509 1514 1519 1524 1529 1533 1536 1540 1543 1547 1550 1553
1458 1454 1456 1460 1464 1467 1476 1466 1468 1472 1480 1485 1479 1492 1475 1469 1466 1464 1464 1464 1464 1467 1470 1473 1476 1479 1482 1486 1490 1494 1498 1501 1505 1510 1514 1518 1521 1525 1530 1535 1539 1544 1547 1550
1455 1451 1453 1458 1458 1460 1465 1460 1465 1469 1478 1486 1484 1491 1483 1471 1469 1464 1462 1461 1462 1464 1467 1470 1473 1476 1479 1483 1486 1490 1493 1497 1501 1505 1509 1514 1518 1522 1527 1532 1536 1540 1544 1547
1447 1445 1446 1448 1448 1452 1456 1463 1470 1479 1485 1496 1486 1491 1487 1475 1467 1462 1460 1459 1460 1461 1464 1467 1471 1474 1476 1479 1483 1486 1489 1492 1496 1500 1504 1509 1513 1517 1522 1527 1531 1536 1540 1543
1450 1445 1442 1443 1449 1452 1458 1476 1494 1495 1503 1500 1486 1488 1483 1465 1460 1459 1458 1458 1458 1460 1462 1464 1467 1469 1473 1475 1478 1481 1484 1487 1491 1495 1500 1504 1508 1513 1517 1522 1526 1531 1535 1538
1458 1458 1442 1440 1445 1453 1459 1468 1491 1501 1503 1498 1487 1487 1473 1460 1458 1457 1457 1456 1457 1459 1460 1462 1465 1467 1470 1473 1475 1477 1480 1482 1486 1490 1495 1499 1504 1508 1512 1517 1522 1526 1530 1534
1456 1455 1436 1434 1435 1443 1459 1465 1466 1486 1492 1496 1491 1481 1467 1457 1457 1456 1456 1456 1456 1457 1459 1461 1463 1465 1468 1470 1473 1475 1477 1479 1481 1486 1491 1495 1499 1503 1507 1513 1517 1521 1526 1530
1442 1450 1438 1433 1435 1440 1446 1457 1473 1485 1498 1500 1488 1484 1477 1462 1459 1457 1456 1456 1456 1457 1458 1460 1462 1464 1466 1469 1471 1473 1475 1477 1480 1484 1487 1490 1493 1498 1503 1508 1512 1516 1521 1526
1435 1446 1443 1438 1441 1446 1452 1458 1467 1480 1482 1495 1497 1486 1459 1456 1454 1455 1454 1455 1456 1457 1458 1460 1461 1463 1466 1468 1470 1471 1473 1476 1478 1481 1484 1487 1490 1494 1498 1502 1507 1512 1517 1521
1434 1446 1453 1445 1436 1434 1439 1449 1460 1474 1481 1485 1488 1481 1451 1451 1451 1452 1453 1454 1456 1457 1459 1460 1462 1463 1465 1468 1469 1471 1473 1475 1477 1479 1481 1484 1487 1490 1494 1498 1502 1507 1512 1517
1432 1445 1458 1455 1450 1441 1442 1446 1451 1461 1475 1485 1485 1473 1451 1451 1451 1451 1453 1454 1455 1457 1458 1460 1461 1463 1465 1467 1469 1471 1472 1473 1474 1477 1479 1482 1484 1488 1491 1495 1499 1503 1508 1512
1424 1441 1451 1457 1452 1444 1444 1445 1449 1456 1472 1477 1472 1462 1454 1452 1451 1451 1453 1454 1455 1456 1458 1459 1460 1463 1464 1466 1468 1470 1471 1471 1473 1475 1477 1480 1482 1485 1488 1492 1496 1501 1505 1509
1425 1439 1440 1439 1436 1437 1439 1441 1445 1448 1454 1461 1459 1458 1451 1449 1450 1451 1452 1454 1455 1456 1457 1459 1460 1461 1463 1465 1467 1469 1470 1472 1473 1475 1477 1479 1481 1484 1487 1491 1494 1499 1503 1506
1428 1437 1439 1441 1437 1436 1440 1440 1441 1443 1447 1450 1451 1452 1447 1448 1449 1451 1452 1454 1455 1457 1458 1459 1460 1461 1463 1464 1466 1468 1470 1472 1473 1475 1477 1479 1481 1484 1486 1490 1493 1497 1500 1504
1433 1437 1445 1450 1443 1441 1451 1444 1442 1443 1443 1445 1450 1447 1446 1448 1449 1451 1453 1454 1455 1457 1458 1459 1460 1461 1463 1465 1466 1468 1470 1472 1474 1475 1477 1479 1481 1484 1487 1490 1492 1495 1499 1502
1433 1439 1448 1452 1449 1460 1450 1440 1439 1441 1442 1441 1442 1444 1446 1448 1451 1453 1454 1455 1456 1457 1457 1458 1459 1461 1462 1464 1466 1468 1470 1472 1473 1475 1477 1479 1482 1484 1487 1489 1492 1495 1498 1501
1430 1437 1448 1456 1458 1454 1445 1439 1440 1442 1444 1442 1442 1445 1447 1449 1451 1454 1455 1456 1456 1457 1458 1459 1460 1461 1462 1464 1466 1467 1469 1471 1473 1475 1477 1480 1482 1484 1486 1489 1491 1495 1497 1500
1431 1436 1446 1453 1457 1460 1445 1437 1437 1441 1447 1441 1442 1444 1447 1449 1454 1457 1457 1457 1457 1458 1458 1459 1459 1461 1462 1464 1466 1467 1469 1471 1473 1475 1477 1479 1481 1483 1486 1488 1491 1494 1496 1499
1439 1443 1448 1451 1453 1449 1439 1437 1438 1450 1446 1440 1442 1444 1447 1450 1453 1455 1456 1457 1458 1459 1460 1460 1461 1461 1462 1464 1466 1467 1469 1471 1473 1475 1476 1478 1480 1482 1485 1487 1490 1492 1495 1497
1441 1445 1449 1451 1453 1451 1438 1437 1440 1440 1438 1438 1441 1444 1447 1450 1453 1455 1457 1459 1460 1461 1462 1462 1462 1463 1465 1466 1468 1469 1470 1472 1473 1475 1476 1477 1479 1482 1484 1486 1489 1491 1494 1496
1440 1442 1443 1445 1446 1440 1438 1438 1438 1437 1438 1440 1441 1444 1447 1451 1454 1457 1459 1461 1462 1463 1464 1465 1465 1466 1467 1468 1469 1470 1472 1473 1474 1475 1476 1478 1480 1482 1484 1486 1489 1491 1493 1495
1438 1438 1440 1441 1440 1439 1438 1438 1438 1438 1439 1441 1443 1446 1448 1451 1455 1458 1460 1463 1464 1465 1466 1467 1468 1468 1469 1471 1472 1473 1474 1475 1476 1477 1478 1480 1481 1483 1485 1487 1490 1492 1494 1496
1437 1438 1439 1440 1440 1439 1439 1439 1439 1440 1442 1444 1446 1449 1451 1454 1456 1459 1462 1464 1466 1467 1469 1470 1471 1472 1473 1474 1475 1476 1477 1477 1478 1479 1480 1482 1484 1486 1487 1489 1492 1494 1496 1498
1436 1437 1438 1438 1437 1439 1440 1441 1441 1443 1445 1447 1449 1452 1455 1457 1459 1462 1464 1467 1469 1470 1472 1473 1475 1475 1476 1477 1478 1479 1480 1481 1481 1482 1484 1486 1487 1489 1491 1492 1494 1497 1499 1501